Miscellaneous Local Product
Issued by NWS Hastings, NE

Home | Current Version | Previous Version | Graphics & Text | Print | Product List | Glossary On
Versions: 1 2 3 4 5 6 7 8 9 10 11 12 13 14 15 16 17 18 19 20 21 22 23 24 25 26 27 28 29 30 31 32 33 34 35 36 37 38 39 40 41 42 43 44 45 46 47 48 49 50
000
AXUS43 KGID 300402
MISGRI

GID CWA HOURLY WEATHER ROUNDUP
NATIONAL WEATHER SERVICE HASTINGS NE
1100 PM CDT THU SEP 29 2016

NOTE: "FAIR" INDICATES FEW OR NO CLOUDS BELOW 12,000 FEET WITH NO
SIGNIFICANT WEATHER AND/OR OBSTRUCTIONS TO VISIBILITY.

...SOUTH CENTRAL NEBRASKA...

CITY           SKY/WX    TMP DP  RH WIND       PRES   REMARKS
GRAND ISLAND   CLEAR     52  45  77 SE6       30.35R
HASTINGS       CLEAR     56  45  66 SE8       30.35S
KEARNEY        CLEAR     48  41  76 E3        30.34S
ORD            CLEAR     44  40  85 CALM      30.33S
YORK           PTCLDY    50  46  87 E5        30.35S
AURORA         CLEAR     49  46  90 E3        30.35S
LEXINGTON      CLEAR     51  44  75 SE6       30.33S
HOLDREGE       CLEAR     44  39  82 SE5       30.34S
HEBRON         CLEAR     48  45  91 CALM      30.34S

...NEBRASKA PANHANDLE...

CITY           SKY/WX    TMP DP  RH WIND       PRES   REMARKS
CHADRON        CLEAR     66  40  38 S16G32    30.18S
ALLIANCE       CLEAR     57  41  55 SE13      30.25S
SCOTTSBLUFF    CLOUDY    61  42  49 SE17      30.24S
SIDNEY         CLEAR     59  42  53 SE14      30.28S

...WESTERN AND NORTH CENTRAL NEBRASKA...

CITY           SKY/WX    TMP DP  RH WIND       PRES   REMARKS
VALENTINE      CLEAR     55  40  56 S12       30.29S
AINSWORTH      CLEAR     54  44  70 SE9       30.31S
ONEILL         CLEAR     53  44  72 SE3       30.35R
BROKEN BOW     CLEAR     45  41  86 CALM      30.33S
IMPERIAL       CLEAR     55  41  59 SE14      30.30R
NORTH PLATTE   CLEAR     48  40  73 E7        30.31S
MCCOOK         CLEAR     52  43  71 SE8       30.31S

...EASTERN NEBRASKA...

CITY           SKY/WX    TMP DP  RH WIND       PRES   REMARKS
NORFOLK        CLEAR     48  43  82 CALM      30.35S
SO SIOUX CITY  CLEAR     55  47  74 E6        30.35S
TEKAMAH        CLEAR     49  46  90 NW5       30.35R
COLUMBUS       CLEAR     46  36  66 CALM      30.35S
ALBION         CLEAR     47  44  88 CALM      30.35S
OMAHA EPPLEY   CLEAR     53  46  77 NW6       30.34S
OFFUTT AFB     CLEAR     49  47  96 NE1       30.33S
MILLARD        CLEAR     54  50  85 CALM      30.34S
LINCOLN        CLEAR     51  47  86 N6        30.36R
NEBRASKA CITY  CLEAR     57  42  57 CALM      30.33S
BEATRICE       CLEAR     51  47  86 CALM      30.34S
FALLS CITY     CLEAR     56  48  74 N3        30.32S

...NORTHERN KANSAS...

CITY           SKY/WX    TMP DP  RH WIND       PRES   REMARKS
GOODLAND       CLEAR     55  38  52 SE12      30.29S
HILL CITY      CLEAR     49  44  83 E5        30.33S
NORTON         CLEAR     50  39  66 SE5       30.32S
PHILLIPSBURG   CLEAR     52  45  76 E5        30.33S
SMITH CENTER   HAZE      50  45  81 CALM      30.34S VSB 1/2
HAYS           CLEAR     52  37  58 SE8       30.33S
RUSSELL        CLEAR     53  47  79 SE10      30.32S
CONCORDIA      CLEAR     56  48  74 CALM      30.33S
SALINA         CLEAR     56  49  77 CALM      30.33S
TOPEKA         CLEAR     54  50  86 CALM      30.31S



USA.gov is the U.S. government's official web portal to all federal, state and local government web resources and services.